Regional Weather Roundup
Issued by NWS

Home | Current Version | Previous Version | Text Only | Print | Product List | Glossary On
Versions: 1 2 3 4 5 6 7 8 9 10 11 12 13 14 15 16 17 18 19 20 21 22 23 24 25 26 27 28 29 30 31 32 33 34 35 36 37 38 39 40 41 42 43 44 45 46 47 48 49 50
000
ASUS43 KOAX 281610
RWRNE

WEATHER ROUNDUP FOR NEBRASKA
NATIONAL WEATHER SERVICE OMAHA NE
1000 AM CST SAT FEB 28 2015

NOTES: SATELLITE DATA IS BEING USED TO AUGMENT CLOUD COVER ABOVE
       12000 FEET.
       "FAIR" INDICATES FEW OR NO CLOUDS BELOW 12,000 FEET WITH NO
       SIGNIFICANT WEATHER AND/OR OBSTRUCTIONS TO VISIBILITY.

  * THESE STATIONS DO NOT REPORT WEATHER SUCH AS RAIN...SNOW OR FOG.

NEZ001>004-019>022-054>056-281700-
NEBRASKA PANHANDLE

CITY           SKY/WX    TMP DP  RH WIND       PRES   REMARKS
SCOTTSBLUFF    SUNNY     16   7  67 W7        30.07R WCI   6
ALLIANCE       SUNNY     14   7  73 VRB3      30.06R
CHADRON        PTSUNNY   18   9  68 CALM      30.12R
KIMBALL        SUNNY     11   6  81 N5        29.98R WCI   3
SIDNEY         CLOUDY    15   9  76 S9        30.05R HAZE    WCI   3
$$

NEZ057>060-069>072-079>082-281700-
SOUTHWEST NEBRASKA

CITY           SKY/WX    TMP DP  RH WIND       PRES   REMARKS
NORTH PLATTE   CLOUDY    18   9  68 S14       30.21R WCI   4
IMPERIAL         N/A     15   7  70 S13       30.15R WCI   1
LEXINGTON      MOSUNNY   19  11  69 S14G21    30.27S WCI   6
MCCOOK         PTSUNNY   20   9  62 S10       30.24R WCI   9
OGALLALA       PTSUNNY   17  11  78 S12       30.14S WCI   4
$$

NEZ005>010-023>029-035>040-094-281700-
NORTH CENTRAL NEBRASKA

CITY           SKY/WX    TMP DP  RH WIND       PRES   REMARKS
VALENTINE      SUNNY     20   8  60 SW20      30.16S WCI   4
AINSWORTH      SUNNY     19   9  67 S22       30.18S WCI   2
BROKEN BOW     CLOUDY    16   8  71 S15G25    30.25R WCI   1
O`NEILL        SUNNY     19   9  67 S15G21    30.27F WCI   4
ORD            CLOUDY    16   7  67 S15       30.29F WCI   1
THEDFORD       LGT SNOW  18  10  71 S14G23    30.18S WCI   4
$$

NEZ041-046>049-061>064-073>077-083>087-281700-
SOUTH CENTRAL NEBRASKA

CITY           SKY/WX    TMP DP  RH WIND       PRES   REMARKS
GRAND ISLAND   CLOUDY    15  10  80 S14       30.36S WCI   0
AURORA         CLOUDY    16  10  76 S13       30.36F WCI   2
HASTINGS       LGT SNOW  14   9  80 S12       30.34S WCI   0
HEBRON         LGT SNOW  17  11  80 S7        30.42F WCI   7
HOLDREGE       LGT SNOW  14   9  78 S15       30.30R WCI  -1
KEARNEY *      CLOUDY    18   9  68 S14       30.32R WCI   4
YORK           CLOUDY    16  10  79 S10       30.39F WCI   3
$$

NEZ011>018-030>034-042>045-281700-
NORTHEAST NEBRASKA

CITY           SKY/WX    TMP DP  RH WIND       PRES   REMARKS
NORFOLK        CLOUDY    17   9  70 S20       30.37F WCI   1
ALBION         CLOUDY    16   8  72 S14       30.35F WCI   1
BLAIR          SUNNY     19   9  67 S13       30.44F WCI   5
COLUMBUS *     CLOUDY    18   3  53 S12       30.41F WCI   5
FREMONT        SUNNY     20  10  64 S15       30.45F WCI   6
WAYNE          MOSUNNY   18  10  71 S17       30.40F WCI   3
$$

NEZ050>053-065>068-078-088>093-281700-
SOUTHEAST NEBRASKA

CITY           SKY/WX    TMP DP  RH WIND       PRES   REMARKS
LINCOLN        MOSUNNY   17  10  74 S9        30.46S WCI   6
OMAHA EPPLEY   MOSUNNY   18   8  65 S10       30.49F WCI   6
BEATRICE       LGT SNOW  17  11  79 S10       30.45S WCI   5
FALLS CITY     LGT SNOW  20  11  68 S9        30.51R WCI   9
NEBRASKA CITY  PTSUNNY   18   8  63 S8        30.48S WCI   8
PLATTSMOUTH    PTSUNNY   17   8  68 SE8       30.47F WCI   6
$$

NEZ044-045-051>053-067-281700-
OMAHA AREA

CITY           SKY/WX    TMP DP  RH WIND       PRES   REMARKS
OMAHA EPPLEY   MOSUNNY   18   8  65 S10       30.49F WCI   6
BLAIR          SUNNY     19   9  67 S13       30.44F WCI   5
FREMONT        SUNNY     20  10  64 S15       30.45F WCI   6
MILLARD        PTSUNNY   19   8  63 S7        30.48F WCI   9
OFFUTT AFB     MOSUNNY   17   8  67 SE8       30.48F WCI   6
PLATTSMOUTH    PTSUNNY   17   8  68 SE8       30.47F WCI   6
WAHOO          CLOUDY    18   9  68 S13       30.45F WCI   4
$$



USA.gov is the U.S. government's official web portal to all federal, state and local government web resources and services.